Weather History for Cincinnati, OH

Change the Weather History Date:

Tuesday, October 1, 2013

  Actual Average Record
Temperature  
Mean Temperature 66 °F -  
Max Temperature 78 °F 73 °F 86 °F (1968)
Min Temperature 55 °F 51 °F 37 °F (2003)
Cooling Degree Days 2    
Growing Degree Days 16 (Base 50)    
Moisture  
Dew Point 60 °F    
Average Humidity 93    
Maximum Humidity 100    
Minimum Humidity 58    
Precipitation  
Precipitation 0.01 in - - ()
Sea Level Pressure  
Sea Level Pressure 30.05 in    
Wind  
Wind Speed 1 mph (SSW)    
Max Wind Speed 13 mph    
Max Gust Speed 18 mph    
Visibility 4 miles    
Events Fog    
Averages and records for this station are not official NWS values.
T = Trace of Precipitation, MM = Missing Value Source: NWS Daily Summary

Daily Weather History Graph

Daily Weather History Graph

Search for Another Location

Airport:

Trip Planner

Search our weather history database for the weather conditions in past years. The results will help you decide how hot, cold, wet, or windy it might be!

Date:

Astronomy

Oct. 01, 2013 Rise Set
Actual Time 7:33 AM EDT 7:19 PM EDT
Civil Twilight 7:07 AM EDT 7:46 PM EDT
Nautical Twilight 6:36 AM EDT 8:17 PM EDT
Astronomical Twilight 6:04 AM EDT 8:48 PM EDT
Moon 4:08 AM EDT (10/1) 5:22 PM EDT (10/1)
Length of Visible Light 12h 39m
Length of Day
11h 46m
Waning Crescent, 12% of the Moon is Illuminated
Oct 1
Waning Crescent
Oct 4
New
Oct 11
First Quarter
Oct 18
Full
Oct 26
Last Quarter

Hourly Weather History & Observations

Time (EDT) Temp. Dew Point Humidity Pressure Visibility Wind Dir Wind Speed Gust Speed Precip Events Conditions
12:06 AM 60.8 °F 60.8 °F 100% 30.03 in 1.2 mi Calm Calm - N/A   Partly Cloudy
12:13 AM 60.8 °F 60.8 °F 100% 30.03 in 0.8 mi Calm Calm - N/A   Clear
12:41 AM 60.8 °F 60.8 °F 100% 30.03 in 3.0 mi Calm Calm - N/A   Clear
12:47 AM 60.8 °F 60.8 °F 100% 30.03 in 1.8 mi Calm Calm - N/A   Clear
12:53 AM 59.0 °F 59.0 °F 100% 30.03 in 1.0 mi Calm Calm - N/A   Clear
12:59 AM 57.2 °F 57.2 °F 100% 30.03 in 0.2 mi Calm Calm - N/A Fog Fog
1:09 AM 57.2 °F 57.2 °F 100% 30.03 in 1.2 mi Calm Calm - N/A   Clear
1:11 AM 59.0 °F 57.2 °F 94% 30.03 in 3.0 mi Calm Calm - N/A   Clear
1:21 AM 59.0 °F 59.0 °F 100% 30.03 in 2.5 mi Calm Calm - N/A   Scattered Clouds
1:32 AM 59.0 °F 59.0 °F 100% 30.03 in 1.5 mi Calm Calm - N/A   Mostly Cloudy
1:40 AM 59.0 °F 59.0 °F 100% 30.04 in 0.5 mi Calm Calm - N/A Fog Fog
1:48 AM 59.0 °F 59.0 °F 100% 30.04 in 0.2 mi Calm Calm - N/A Fog Fog
1:53 AM 57.9 °F 57.9 °F 100% 30.04 in 0.2 mi Calm Calm - N/A Fog Fog
2:05 AM 59.0 °F 59.0 °F 100% 30.04 in 1.0 mi Calm Calm - N/A   Overcast
2:09 AM 59.0 °F 59.0 °F 100% 30.04 in 4.0 mi Calm Calm - N/A   Overcast
2:48 AM 57.2 °F 57.2 °F 100% 30.04 in 1.8 mi Calm Calm - N/A   Overcast
2:53 AM 57.9 °F 57.9 °F 100% 30.04 in 1.0 mi Calm Calm - N/A   Overcast
3:16 AM 57.2 °F 57.2 °F 100% 30.04 in 3.0 mi Calm Calm - N/A   Scattered Clouds
3:31 AM 57.2 °F 57.2 °F 100% 30.04 in 1.8 mi Calm Calm - N/A   Mostly Cloudy
3:38 AM 57.2 °F 57.2 °F 100% 30.04 in 0.2 mi Calm Calm - N/A Fog Fog
3:53 AM 57.0 °F 57.0 °F 100% 30.04 in 0.2 mi Calm Calm - N/A Fog Fog
4:53 AM 55.9 °F 55.9 °F 100% 30.04 in 0.2 mi Calm Calm - 0.01 in Fog Fog
5:53 AM 57.0 °F 57.0 °F 100% 30.05 in 0.2 mi Calm Calm - N/A Fog Fog
6:53 AM 57.0 °F 57.0 °F 100% 30.07 in 0.5 mi Calm Calm - N/A Fog Fog
7:53 AM 57.0 °F 57.0 °F 100% 30.09 in 0.5 mi Calm Calm - N/A Fog Fog
8:47 AM 59.0 °F 59.0 °F 100% 30.11 in 4.0 mi Calm Calm - N/A   Overcast
8:53 AM 59.0 °F 59.0 °F 100% 30.10 in 4.0 mi Calm Calm - N/A   Overcast
9:53 AM 63.0 °F 61.0 °F 93% 30.11 in 7.0 mi Calm Calm - N/A   Mostly Cloudy
10:53 AM 69.1 °F 64.0 °F 84% 30.11 in 10.0 mi Calm Calm - N/A   Partly Cloudy
11:53 AM 73.0 °F 62.1 °F 68% 30.09 in 10.0 mi SSW 11.5 mph - N/A   Mostly Cloudy
12:53 PM 73.9 °F 61.0 °F 64% 30.09 in 10.0 mi SSW 6.9 mph - N/A   Mostly Cloudy
1:53 PM 77.0 °F 62.1 °F 60% 30.06 in 10.0 mi South 9.2 mph - N/A   Scattered Clouds
2:53 PM 78.1 °F 63.0 °F 60% 30.05 in 10.0 mi SSW 12.7 mph 18.4 mph N/A   Mostly Cloudy
3:53 PM 77.0 °F 61.0 °F 58% 30.04 in 10.0 mi SW 6.9 mph - N/A   Mostly Cloudy
4:53 PM 77.0 °F 62.1 °F 60% 30.03 in 10.0 mi SSW 6.9 mph - N/A   Mostly Cloudy
5:53 PM 75.9 °F 62.1 °F 62% 30.03 in 10.0 mi SW 8.1 mph - N/A   Partly Cloudy
6:53 PM 72.0 °F 62.1 °F 71% 30.03 in 10.0 mi SW 6.9 mph - N/A   Clear
7:53 PM 64.0 °F 61.0 °F 90% 30.04 in 10.0 mi Calm Calm - N/A   Clear
8:53 PM 64.0 °F 62.1 °F 93% 30.05 in 8.0 mi Calm Calm - N/A   Clear
9:49 PM 62.6 °F 62.6 °F 100% 30.06 in 1.5 mi Calm Calm - N/A   Clear
9:53 PM 62.1 °F 61.0 °F 96% 30.06 in 10.0 mi Calm Calm - N/A   Clear
10:42 PM 60.8 °F 60.8 °F 100% 30.07 in 10.0 mi Calm Calm - N/A   Partly Cloudy
10:53 PM 60.1 °F 60.1 °F 100% 30.06 in 10.0 mi Calm Calm - N/A   Clear
11:00 PM 60.8 °F 59.0 °F 94% 30.07 in 0.2 mi Calm Calm - N/A Fog Fog
11:07 PM 59.0 °F 59.0 °F 100% 30.07 in 1.0 mi Calm Calm - N/A   Clear
11:10 PM 59.0 °F 59.0 °F 100% 30.07 in 3.0 mi Calm Calm - N/A   Clear
11:15 PM 59.0 °F 59.0 °F 100% 30.07 in 0.8 mi Calm Calm - N/A   Mist
11:25 PM 60.8 °F 60.8 °F 100% 30.07 in 0.2 mi Calm Calm - N/A Fog Fog
11:32 PM 59.0 °F 59.0 °F 100% 30.07 in 0.5 mi Calm Calm - N/A Fog Fog
11:37 PM 60.8 °F 60.8 °F 100% 30.07 in 0.2 mi Calm Calm - N/A Fog Fog
11:53 PM 60.1 °F 60.1 °F 100% 30.07 in 1.0 mi Calm Calm - N/A   Mist
11:58 PM 60.8 °F 60.8 °F 100% 30.07 in 2.0 mi Calm Calm - N/A   Partly Cloudy